Tuscaloosa, AL

10:27 PM CDT on August 23, 2017 (GMT -0500)
Tuscaloosa Municipal

Weather History for KTCL - October, 2012

Change the Weather History Date:

Monday, October 8, 2012

  Actual Average Record
Temperature  
Mean Temperature 56 °F 67 °F  
Max Temperature 66 °F 80 °F 93 °F (1962)
Min Temperature 46 °F 55 °F 35 °F (1991)
Degree Days  
Heating Degree Days 9 2  
Month to date heating degree days 19 12  
Since 1 July heating degree days 20 19  
Growing Degree Days 7 (Base 50)    
Moisture  
Dew Point 47 °F    
Average Humidity 73    
Maximum Humidity 93    
Minimum Humidity 52    
Precipitation  
Precipitation T in 0.11 in 1.90 in (1977)
Month to date precipitation 0.03 0.93  
Year to date precipitation 37.02 40.32  
Sea Level Pressure  
Sea Level Pressure 30.16 in    
Wind  
Wind Speed 6 mph (North)    
Max Wind Speed 16 mph    
Max Gust Speed 20 mph    
Visibility 10 miles    
Events      
T = Trace of Precipitation, MM = Missing Value Source: NWS Daily Summary

Daily Weather History Graph

Daily Weather History Graph

Search for Another Location

Airport or City:

Trip Planner

Search our weather history database for the weather conditions in past years. The results will help you decide how hot, cold, wet, or windy it might be!

Date:

Astronomy

Oct. 08, 2012 Rise Set
Actual Time 6:50 AM CDT 6:25 PM CDT
Civil Twilight 6:25 AM CDT 6:49 PM CDT
Nautical Twilight 5:56 AM CDT 7:18 PM CDT
Astronomical Twilight 5:27 AM CDT 7:47 PM CDT
Moon No Moon Rise 1:55 PM CDT (10/8)
Length of Visible Light 12h 24m
Length of Day
11h 35m
Last Quarter, 46% of the Moon is Illuminated
Oct 8
Last Quarter
Oct 15
New
Oct 21
First Quarter
Oct 29
Full
Nov 6
Last Quarter

Hourly Weather History & Observations

Time (CDT) Temp. Dew Point Humidity Pressure Visibility Wind Dir Wind Speed Gust Speed Precip Events Conditions
12:53 AM 52.0 °F 46.0 °F 80% 30.13 in 10.0 mi Calm Calm - N/A   Clear
1:53 AM 51.1 °F 46.9 °F 86% 30.12 in 10.0 mi Calm Calm - N/A   Clear
2:53 AM 52.0 °F 46.9 °F 83% 30.11 in 10.0 mi NNW 4.6 mph - N/A   Clear
3:53 AM 51.1 °F 46.9 °F 86% 30.10 in 10.0 mi North 4.6 mph - N/A   Clear
4:53 AM 52.0 °F 46.9 °F 83% 30.12 in 10.0 mi NNW 5.8 mph - N/A   Overcast
5:53 AM 52.0 °F 46.0 °F 80% 30.16 in 10.0 mi NNW 8.1 mph - N/A   Scattered Clouds
6:53 AM 52.0 °F 45.0 °F 77% 30.17 in 10.0 mi North 9.2 mph - N/A   Overcast
7:53 AM 53.1 °F 45.0 °F 74% 30.19 in 10.0 mi NNE 8.1 mph - 0.00 in   Overcast
8:53 AM 53.1 °F 45.0 °F 74% 30.21 in 10.0 mi North 10.4 mph - N/A   Overcast
9:53 AM 53.1 °F 46.0 °F 77% 30.22 in 10.0 mi North 15.0 mph - 0.00 in   Overcast
10:53 AM 55.9 °F 46.0 °F 69% 30.22 in 10.0 mi NNE 11.5 mph - N/A   Overcast
11:53 AM 60.1 °F 46.9 °F 62% 30.19 in 10.0 mi NE 9.2 mph - N/A   Partly Cloudy
12:53 PM 62.1 °F 46.9 °F 58% 30.18 in 10.0 mi Calm Calm - N/A   Partly Cloudy
1:53 PM 64.9 °F 46.0 °F 50% 30.15 in 10.0 mi North 9.2 mph - N/A   Mostly Cloudy
2:53 PM 64.0 °F 46.0 °F 52% 30.13 in 10.0 mi North 8.1 mph - N/A   Overcast
3:53 PM 63.0 °F 46.9 °F 56% 30.13 in 10.0 mi NNW 10.4 mph - N/A   Overcast
4:53 PM 62.1 °F 46.0 °F 56% 30.13 in 10.0 mi North 5.8 mph - N/A   Overcast
5:53 PM 60.1 °F 46.9 °F 62% 30.13 in 10.0 mi North 9.2 mph - N/A   Overcast
7:53 PM 57.0 °F 50.0 °F 77% 30.14 in 10.0 mi North 3.5 mph - N/A   Overcast
9:53 PM 52.0 °F 48.9 °F 89% 30.17 in 10.0 mi Calm Calm - N/A   Clear
10:53 PM 50.0 °F 48.0 °F 93% 30.17 in 10.0 mi Calm Calm - N/A   Clear
11:53 PM 48.9 °F 46.9 °F 93% 30.15 in 10.0 mi Calm Calm - N/A   Clear